GW3011 Weather Reports


time (UTC)temp
F
wind
direction
speed
knots
gust
knots
rain 1hr
in
rain 24hr
in
rain mn
in
humidity
%
barometer
mb
20260905113353 71 166 0.0 0.0 0.00 0.00 0.00 69 1010.2
20260905112848 71 149 0.0 0.0 0.00 0.00 0.00 72 1010.2
20260905112343 71 139 0.0 0.0 0.00 0.00 0.00 72 1010.3
20260905111838 71 134 0.0 0.0 0.00 0.00 0.00 71 1010.1
20260905111333 71 138 0.0 0.0 0.00 0.00 0.00 70 1009.9
20260905110832 72 158 0.0 0.0 0.00 0.00 0.00 71 1009.9
20260905110326 71 184 0.0 0.0 0.00 0.00 0.00 70 1009.8
20260905105822 72 181 0.0 0.0 0.00 0.00 0.00 70 1009.9
20260905105321 71 141 0.0 0.0 0.00 0.00 0.00 73 1009.8
20260905104815 71 142 0.0 0.0 0.00 0.00 0.00 70 1009.6
20260905104312 71 150 0.0 0.0 0.00 0.00 0.00 70 1009.6
20260905103811 71 158 0.0 0.0 0.00 0.00 0.00 70 1009.6
20260905103307 71 139 0.0 0.0 0.00 0.00 0.00 71 1009.6
20260905102803 71 191 0.0 0.0 0.00 0.00 0.00 70 1009.2
20260905102259 71 154 0.0 0.0 0.00 0.00 0.00 72 1009.2
20260905101758 71 182 0.0 0.0 0.00 0.00 0.00 69 1009.3
20260905101257 71 193 0.0 0.0 0.00 0.00 0.00 69 1009.3
20260905100751 71 158 0.0 0.0 0.00 0.00 0.00 69 1009.3
20260905100248 71 204 0.0 0.0 0.00 0.00 0.00 69 1009.6
20260905095742 72 184 0.0 0.0 0.00 0.00 0.00 69 1009.4
20260905095241 72 209 0.0 0.0 0.00 0.00 0.00 69 1009.6
20260905094736 72 162 0.0 0.0 0.00 0.00 0.00 69 1009.5
20260905094232 72 152 0.0 0.0 0.00 0.00 0.00 68 1009.3
20260905093731 72 203 0.0 0.0 0.00 0.00 0.00 68 1009.4
20260905093227 72 176 0.0 0.0 0.00 0.00 0.00 68 1009.3
20260905092722 73 190 0.0 0.0 0.00 0.00 0.00 68 1009.3
20260905092217 73 203 0.0 0.0 0.00 0.00 0.00 68 1009.3
20260905091716 73 185 0.0 0.0 0.00 0.00 0.00 67 1009.2
20260905091212 73 172 0.0 0.0 0.00 0.00 0.00 67 1009.1
20260905090711 73 154 0.0 0.0 0.00 0.00 0.00 69 1009.0
20260905090207 73 157 0.0 0.0 0.00 0.00 0.00 67 1009.3
20260905085706 73 199 0.0 0.0 0.00 0.00 0.00 66 1009.2
20260905085201 73 163 0.0 0.0 0.00 0.00 0.00 67 1009.0
20260905084700 73 210 0.0 0.0 0.00 0.00 0.00 66 1009.2
20260905084149 73 156 0.0 0.0 0.00 0.00 0.00 68 1009.3
20260905083644 73 197 0.0 0.0 0.00 0.00 0.00 65 1009.2
20260905083141 73 138 0.0 0.0 0.00 0.00 0.00 67 1009.1
20260905082637 73 184 0.0 0.0 0.00 0.00 0.00 65 1009.2
20260905082131 73 207 0.0 0.0 0.00 0.00 0.00 65 1009.2
20260905081631 74 218 0.0 0.0 0.00 0.00 0.00 64 1009.4
20260905081126 73 143 0.0 0.0 0.00 0.00 0.00 64 1009.0
20260905080621 73 164 0.0 0.0 0.00 0.00 0.00 64 1009.2
20260905080120 74 215 0.0 0.0 0.00 0.00 0.00 64 1009.0
20260905075619 74 252 0.0 0.0 0.00 0.00 0.00 64 1009.1
20260905075114 74 232 0.0 0.0 0.00 0.00 0.00 64 1009.4
20260905074613 74 226 0.0 0.0 0.00 0.00 0.00 64 1009.3
20260905074109 74 225 0.0 0.0 0.00 0.00 0.00 63 1009.3
20260905073604 74 195 0.0 0.0 0.00 0.00 0.00 62 1009.1
20260905073100 74 197 0.0 0.0 0.00 0.00 0.00 62 1009.2
20260905072559 74 230 0.0 0.0 0.00 0.00 0.00 62 1009.3
20260905072055 74 203 0.0 0.0 0.00 0.00 0.00 62 1009.4
20260905071551 75 203 0.0 0.0 0.00 0.00 0.00 61 1009.1
20260905071046 75 170 0.0 0.0 0.00 0.00 0.00 63 1009.3
20260905070541 75 191 0.0 0.0 0.00 0.00 0.00 61 1009.2
20260905070037 75 194 0.0 0.0 0.00 0.00 0.00 62 1009.3
20260905065535 75 222 0.0 0.0 0.00 0.00 0.00 61 1009.4
20260905065030 75 207 0.0 0.0 0.00 0.00 0.00 62 1009.2
20260905064530 75 194 0.0 0.0 0.00 0.00 0.00 62 1009.4
20260905064026 75 210 0.0 0.0 0.00 0.00 0.00 62 1009.4
20260905063524 75 170 0.0 0.0 0.00 0.00 0.00 62 1009.3
20260905063021 75 194 0.0 0.0 0.00 0.00 0.00 62 1009.3
20260905062520 75 216 0.0 0.0 0.00 0.00 0.00 62 1009.6
20260905062015 75 212 0.0 0.0 0.00 0.00 0.00 62 1009.7
20260905061511 75 232 0.0 0.0 0.00 0.00 0.00 62 1009.5
20260905061009 75 228 0.0 0.0 0.00 0.00 0.00 63 1009.5
20260905060506 75 172 0.0 0.0 0.00 0.00 0.00 63 1009.5
20260905060001 75 151 0.0 0.0 0.00 0.00 0.00 65 1009.4
20260905055459 76 186 0.0 0.0 0.00 0.00 0.00 64 1009.7
20260905054954 76 212 0.0 0.0 0.00 0.00 0.00 62 1009.6
20260905054450 76 243 0.0 0.0 0.00 0.00 0.00 62 1009.8
20260905053945 76 211 0.0 0.0 0.00 0.00 0.00 61 1010.1
20260905053440 76 205 0.0 0.0 0.00 0.00 0.00 62 1009.8
20260905052936 76 230 0.0 0.0 0.00 0.00 0.00 62 1010.2
20260905052435 76 122 0.0 0.0 0.00 0.00 0.00 64 1009.9
20260905051935 76 203 0.0 0.0 0.00 0.00 0.00 63 1010.1
20260905051430 76 212 0.0 0.0 0.00 0.00 0.00 62 1010.1
20260905050928 77 201 0.0 0.0 0.00 0.00 0.00 63 1010.0
20260905050423 76 124 0.0 0.0 0.00 0.00 0.00 64 1010.3
20260905045918 76 184 0.0 0.0 0.00 0.00 0.00 64 1010.3
20260905045408 77 150 0.0 0.0 0.00 0.00 0.00 65 1010.0
20260905044903 77 222 0.0 0.0 0.00 0.00 0.00 63 1010.0
20260905044358 77 184 0.0 0.0 0.00 0.00 0.00 63 1010.4
20260905043857 77 222 0.0 0.0 0.00 0.00 0.00 63 1010.2
20260905043352 77 158 0.0 0.0 0.00 0.00 0.00 64 1010.1
20260905042847 77 178 0.0 0.0 0.00 0.00 0.00 64 1010.1
20260905042347 77 236 0.0 0.0 0.00 0.00 0.00 63 1010.2
20260905041841 77 198 0.0 0.0 0.00 0.00 0.00 63 1010.3
20260905041337 77 229 0.0 0.0 0.00 0.00 0.00 63 1010.5
20260905040832 77 179 0.0 0.0 0.00 0.00 0.00 63 1010.5
20260905040331 77 200 0.0 0.0 0.00 0.00 0.00 63 1010.2
20260905035830 77 176 0.0 0.0 0.00 0.00 0.00 63 1010.4
20260905035326 77 286 0.0 0.0 0.00 0.00 0.00 63 1010.2
20260905034823 77 203 0.0 0.0 0.00 0.00 0.00 63 1010.2
20260905034318 77 211 0.0 0.0 0.00 0.00 0.00 63 1010.3
20260905033816 78 222 0.0 0.0 0.00 0.00 0.00 63 1010.1
20260905033312 78 202 0.0 0.0 0.00 0.00 0.00 63 1010.0
20260905032811 78 199 0.0 0.0 0.00 0.00 0.00 63 1010.0
20260905032307 78 203 0.0 0.0 0.00 0.00 0.00 63 1010.2
20260905031802 78 182 0.0 0.0 0.00 0.00 0.00 63 1010.0
20260905031258 78 224 0.0 0.0 0.00 0.00 0.00 62 1010.0
20260905030753 78 187 0.0 0.0 0.00 0.00 0.00 63 1010.1
20260905030248 78 164 0.0 0.0 0.00 0.00 0.00 63 1010.1
20260905025742 78 144 0.0 0.0 0.00 0.00 0.00 63 1010.3
20260905025238 78 177 0.0 0.0 0.00 0.00 0.00 62 1010.0
20260905024733 78 165 0.0 0.0 0.00 0.00 0.00 64 1010.1
20260905024230 78 187 0.0 0.0 0.00 0.00 0.00 61 1010.3
20260905023729 78 116 0.0 0.0 0.00 0.00 0.00 62 1010.1
20260905023224 78 222 0.0 0.0 0.00 0.00 0.00 61 1010.1
20260905022723 79 206 0.0 0.0 0.00 0.00 0.00 60 1010.0
20260905022219 79 193 0.0 0.0 0.00 0.00 0.00 61 1010.4
20260905021713 79 153 0.0 0.0 0.00 0.00 0.00 62 1010.4
20260905021208 79 197 0.0 0.0 0.00 0.00 0.00 61 1010.3
20260905020703 79 207 0.0 0.0 0.00 0.00 0.00 60 1010.3
20260905020158 79 196 0.0 0.0 0.00 0.00 0.00 60 1010.4
20260905015656 79 225 0.0 0.0 0.00 0.00 0.00 60 1010.4
20260905015145 79 196 0.0 0.0 0.00 0.00 0.00 59 1010.3
20260905014639 79 170 0.0 0.0 0.00 0.00 0.00 61 1010.5
20260905014135 79 168 0.0 0.0 0.00 0.00 0.00 60 1010.2
20260905013631 79 221 0.0 0.0 0.00 0.00 0.00 60 1010.4
20260905013127 79 161 0.0 0.0 0.00 0.00 0.00 60 1010.4
20260905012627 80 171 0.0 0.0 0.00 0.00 0.00 60 1010.4
20260905012123 80 172 0.0 0.0 0.00 0.00 0.00 60 1010.3
20260905011619 80 154 0.0 0.0 0.00 0.00 0.00 61 1010.1
20260905011115 80 194 0.0 0.0 0.00 0.00 0.00 59 1010.4
20260905010614 80 190 0.0 0.0 0.00 0.00 0.00 59 1010.4
20260905010111 80 218 0.0 0.0 0.00 0.00 0.00 59 1010.2
20260905005606 80 141 0.0 0.0 0.00 0.00 0.00 60 1010.0
20260905005101 80 226 0.0 0.0 0.00 0.00 0.00 58 1010.2
20260905004556 80 216 0.0 0.0 0.00 0.00 0.00 57 1010.0
20260905004051 80 212 0.0 0.0 0.00 0.00 0.00 58 1010.2
20260905003547 80 219 0.0 0.0 0.00 0.00 0.00 58 1009.9
20260905003042 80 193 0.0 0.0 0.00 0.00 0.00 59 1009.9
20260905002538 80 167 0.0 0.0 0.00 0.00 0.00 62 1010.0
20260905002037 80 211 0.0 0.0 0.00 0.00 0.00 58 1010.1
20260905001527 81 185 0.0 0.0 0.00 0.00 0.00 58 1010.0
20260905001027 81 173 0.0 0.0 0.00 0.00 0.00 58 1010.0
20260905000522 81 171 0.0 0.0 0.00 0.00 0.00 58 1010.1
20260905000018 81 192 0.0 0.0 0.00 0.00 0.00 57 1010.2
20260904235512 81 160 0.0 0.0 0.00 0.00 0.00 59 1010.0
20260904235006 81 224 0.0 0.0 0.00 0.00 0.00 58 1009.7
20260904234507 81 179 0.0 0.0 0.00 0.00 0.00 58 1009.8
20260904234003 81 186 0.0 0.0 0.00 0.00 0.00 59 1009.9
20260904233458 81 161 0.0 0.0 0.00 0.00 0.00 60 1010.1
20260904232954 82 183 0.0 0.0 0.00 0.00 0.00 58 1010.2
20260904232449 82 154 0.0 0.0 0.00 0.00 0.00 59 1009.8
20260904231941 82 178 0.0 0.0 0.00 0.00 0.00 58 1010.0
20260904231436 82 165 0.0 0.0 0.00 0.00 0.00 59 1010.1
20260904230931 82 200 0.0 0.0 0.00 0.00 0.00 57 1009.8
20260904230429 83 171 0.0 0.0 0.00 0.00 0.00 57 1009.8
20260904225924 83 175 0.0 0.0 0.00 0.00 0.00 57 1009.8
20260904225422 83 163 0.0 0.0 0.00 0.00 0.00 57 1010.0
20260904224917 83 152 0.0 0.0 0.00 0.00 0.00 56 1009.9
20260904224413 85 165 0.0 0.0 0.00 0.00 0.00 55 1009.9
20260904223912 85 208 0.0 0.0 0.00 0.00 0.00 53 1009.7
20260904223411 85 224 0.0 0.0 0.00 0.00 0.00 52 1009.9
20260904222908 84 206 0.0 0.0 0.00 0.00 0.00 53 1009.9
20260904222403 85 213 0.0 0.0 0.00 0.00 0.00 53 1010.0
20260904221903 85 207 0.0 0.0 0.00 0.00 0.00 52 1010.0
20260904221357 86 177 0.0 0.0 0.00 0.00 0.00 52 1009.9
20260904220853 85 176 0.0 0.0 0.00 0.00 0.00 52 1010.0
20260904220352 85 174 0.0 0.0 0.00 0.00 0.00 51 1009.9
20260904215848 86 194 0.0 0.0 0.00 0.00 0.00 51 1010.0
20260904215342 86 184 0.0 0.0 0.00 0.00 0.00 51 1009.6
20260904214838 86 213 0.0 0.0 0.00 0.00 0.00 51 1009.8
20260904214334 87 179 0.0 0.0 0.00 0.00 0.00 49 1009.8
20260904213832 87 171 0.0 0.0 0.00 0.00 0.00 50 1009.6
20260904213327 87 152 0.0 0.0 0.00 0.00 0.00 50 1009.6
20260904212824 86 186 0.0 0.0 0.00 0.00 0.00 51 1009.4
20260904212323 86 162 0.0 0.0 0.00 0.00 0.00 51 1009.5
20260904211819 86 111 0.0 0.0 0.00 0.00 0.00 51 1009.4
20260904211314 86 226 0.0 0.0 0.00 0.00 0.00 51 1009.5
20260904210808 87 155 0.0 0.0 0.00 0.00 0.00 50 1009.4
20260904210302 89 199 0.0 0.0 0.00 0.00 0.00 49 1009.9
20260904205759 87 124 0.0 0.0 0.00 0.00 0.00 50 1009.8
20260904205254 87 176 0.0 0.0 0.00 0.00 0.00 51 1010.0
20260904204751 87 187 0.0 0.0 0.00 0.00 0.00 50 1009.8
20260904204247 87 217 0.0 0.0 0.00 0.00 0.00 51 1009.7
20260904203743 87 163 0.0 0.0 0.00 0.00 0.00 52 1010.1
20260904203239 87 182 0.0 0.0 0.00 0.00 0.00 50 1009.9
20260904202734 87 194 0.0 0.9 0.00 0.00 0.00 49 1009.7
20260904202230 87 203 0.0 0.0 0.00 0.00 0.00 49 1009.9
20260904201725 87 197 0.0 0.0 0.00 0.00 0.00 50 1009.8
20260904201220 87 185 0.0 0.0 0.00 0.00 0.00 51 1010.0
20260904200715 87 135 0.0 0.0 0.00 0.00 0.00 51 1010.0
20260904200209 86 201 0.0 0.0 0.00 0.00 0.00 51 1010.0
20260904195708 88 208 0.0 0.0 0.00 0.00 0.00 49 1010.3
20260904195201 87 181 0.0 0.0 0.00 0.00 0.00 49 1010.3
20260904194701 87 158 0.0 0.0 0.00 0.00 0.00 51 1010.3
20260904194155 86 192 0.0 0.0 0.00 0.00 0.00 52 1010.3
20260904193651 86 217 0.0 0.0 0.00 0.00 0.00 51 1010.3
20260904193148 86 220 0.0 0.0 0.00 0.00 0.00 51 1010.4
20260904192647 87 134 0.0 0.0 0.00 0.00 0.00 51 1010.4
20260904192143 87 186 0.0 0.0 0.00 0.00 0.00 50 1010.4
20260904191639 86 212 0.0 0.0 0.00 0.00 0.00 50 1010.3
20260904191136 86 234 0.0 0.0 0.00 0.00 0.00 50 1010.5
20260904190632 87 205 0.0 0.0 0.00 0.00 0.00 51 1010.5
20260904190127 86 167 0.0 0.0 0.00 0.00 0.00 51 1010.7
20260904185623 86 173 0.0 0.0 0.00 0.00 0.00 51 1010.5
20260904185118 85 208 0.0 0.0 0.00 0.00 0.00 51 1010.7
20260904184617 86 145 0.0 0.0 0.00 0.00 0.00 51 1011.0
20260904184112 87 142 0.0 0.0 0.00 0.00 0.00 51 1010.5
20260904183608 85 215 0.0 0.0 0.00 0.00 0.00 51 1010.6
20260904183103 86 194 0.0 0.0 0.00 0.00 0.00 51 1011.1
20260904182558 87 174 0.0 0.0 0.00 0.00 0.00 50 1010.7
20260904182052 86 155 0.0 0.0 0.00 0.00 0.00 52 1010.7
20260904181549 86 250 0.0 0.0 0.00 0.00 0.00 51 1010.8
20260904181048 87 141 0.0 0.0 0.00 0.00 0.00 51 1010.6
20260904180543 85 189 0.0 0.0 0.00 0.00 0.00 53 1010.5
20260904180038 86 204 0.0 0.0 0.00 0.00 0.00 53 1010.7
20260904175532 85 177 0.0 0.0 0.00 0.00 0.00 54 1010.8
20260904175030 84 198 0.0 0.0 0.00 0.00 0.00 55 1010.8
20260904174526 86 215 0.0 0.0 0.00 0.00 0.00 54 1010.6
20260904174023 86 153 0.0 0.0 0.00 0.00 0.00 53 1010.6
20260904173522 86 190 0.0 0.0 0.00 0.00 0.00 53 1010.6
20260904173018 87 176 0.0 0.0 0.00 0.00 0.00 53 1010.7
20260904172514 87 98 0.0 0.0 0.00 0.00 0.00 53 1010.7
20260904172013 86 177 0.0 0.0 0.00 0.00 0.00 54 1010.7
20260904171508 85 228 0.0 0.0 0.00 0.00 0.00 55 1010.6
20260904171004 84 196 0.0 0.0 0.00 0.00 0.00 57 1010.8
20260904170459 85 184 0.0 0.0 0.00 0.00 0.00 56 1010.8
20260904165954 85 152 0.0 0.0 0.00 0.00 0.00 56 1010.6
20260904165453 84 184 0.0 0.0 0.00 0.00 0.00 57 1010.8
20260904164953 85 192 0.0 0.0 0.00 0.00 0.00 57 1010.7
20260904164448 86 229 0.0 0.0 0.00 0.00 0.00 52 1010.7
20260904163944 85 223 0.0 0.0 0.00 0.00 0.00 56 1010.8
20260904163438 84 186 0.0 0.0 0.00 0.00 0.00 57 1010.9
20260904162938 84 197 0.0 0.0 0.00 0.00 0.00 57 1010.8
20260904162433 85 227 0.0 0.0 0.00 0.00 0.00 56 1010.7
20260904161928 84 166 0.0 0.0 0.00 0.00 0.00 58 1010.7
20260904161423 85 208 0.0 0.0 0.00 0.00 0.00 56 1010.6
20260904160920 85 220 0.0 0.0 0.00 0.00 0.00 57 1010.9
20260904160414 86 197 0.0 0.0 0.00 0.00 0.00 56 1010.7
20260904155909 85 203 0.0 0.0 0.00 0.00 0.00 56 1010.8
20260904155404 85 228 0.0 0.0 0.00 0.00 0.00 57 1011.0
20260904154902 84 230 0.0 0.0 0.00 0.00 0.00 57 1010.9
20260904154357 85 215 0.0 0.0 0.00 0.00 0.00 56 1011.0
20260904153853 85 176 0.0 0.0 0.00 0.00 0.00 57 1011.0
20260904153348 85 199 0.0 0.0 0.00 0.00 0.00 57 1011.1
20260904152845 85 192 0.0 0.0 0.00 0.00 0.00 58 1011.1
20260904152344 84 226 0.0 0.0 0.00 0.00 0.00 58 1011.3
20260904151839 84 201 0.0 0.0 0.00 0.00 0.00 57 1011.2
20260904151338 85 205 0.0 0.0 0.00 0.00 0.00 58 1011.2
20260904150834 84 219 0.0 0.0 0.00 0.00 0.00 63 1011.4
20260904150329 84 128 0.0 0.0 0.00 0.00 0.00 63 1011.3
20260904145826 84 193 0.0 0.0 0.00 0.00 0.00 63 1011.3
20260904145324 84 197 0.0 0.0 0.00 0.00 0.00 63 1011.5
20260904144819 83 163 0.0 0.0 0.00 0.00 0.00 62 1011.3
20260904144314 84 216 0.0 0.0 0.00 0.00 0.00 63 1011.2
20260904143809 84 223 0.0 0.0 0.00 0.00 0.00 63 1011.3
20260904143306 84 235 0.0 0.0 0.00 0.00 0.00 64 1011.1
20260904142802 83 271 0.0 0.0 0.00 0.00 0.00 65 1011.2
20260904142257 83 220 0.0 0.0 0.00 0.00 0.00 64 1011.2
20260904141752 84 200 0.0 0.0 0.00 0.00 0.00 64 1011.1
20260904141248 82 229 0.0 0.0 0.00 0.00 0.00 68 1011.1
20260904140743 82 176 0.0 0.0 0.00 0.00 0.00 68 1011.0
20260904140238 82 216 0.0 0.0 0.00 0.00 0.00 69 1011.1
20260904135737 82 92 0.0 0.0 0.00 0.00 0.00 69 1011.2
20260904135232 81 238 0.0 0.0 0.00 0.00 0.00 70 1010.9
20260904134728 81 186 0.0 0.0 0.00 0.00 0.00 70 1010.8
20260904134228 81 209 0.0 0.0 0.00 0.00 0.00 70 1010.8
20260904133722 81 161 0.0 0.0 0.00 0.00 0.00 70 1010.8
20260904133219 80 161 0.0 0.0 0.00 0.00 0.00 72 1010.8
20260904132718 81 230 0.0 0.0 0.00 0.00 0.00 71 1010.7
20260904132214 80 219 0.0 0.0 0.00 0.00 0.00 71 1010.8
20260904131713 80 212 0.0 0.0 0.00 0.00 0.00 73 1010.8
20260904131208 80 207 0.0 0.0 0.00 0.00 0.00 74 1010.8
20260904130703 80 303 0.0 0.0 0.00 0.00 0.00 74 1010.9
20260904130202 79 194 0.0 0.0 0.00 0.00 0.00 75 1010.9
20260904125659 79 232 0.0 0.0 0.00 0.00 0.00 76 1010.7
20260904125154 79 186 0.0 0.0 0.00 0.00 0.00 76 1010.7
20260904124649 79 217 0.0 0.0 0.00 0.00 0.00 77 1010.8
20260904124144 79 250 0.0 0.0 0.00 0.00 0.00 77 1010.6
20260904123638 79 217 0.0 0.0 0.00 0.00 0.00 78 1010.7
20260904123135 79 237 0.0 0.0 0.00 0.00 0.00 78 1010.7
20260904122629 78 173 0.0 0.0 0.00 0.00 0.00 79 1010.6
20260904122124 78 214 0.0 0.0 0.00 0.00 0.00 81 1010.7
20260904121619 78 137 0.0 0.0 0.00 0.00 0.00 82 1010.7
20260904121115 77 181 0.0 0.0 0.00 0.00 0.00 83 1010.7
20260904120611 77 204 0.0 0.0 0.00 0.00 0.00 84 1010.5
20260904120107 77 172 0.0 0.0 0.00 0.00 0.00 85 1010.4
20260904115602 77 224 0.0 0.0 0.00 0.00 0.00 86 1010.5
20260904115057 76 200 0.0 0.0 0.00 0.00 0.00 87 1010.6
20260904114556 76 170 0.0 0.0 0.00 0.00 0.00 88 1010.8
20260904114056 76 191 0.0 0.0 0.00 0.00 0.00 88 1010.7
20260904113551 76 138 0.0 0.0 0.00 0.00 0.00 89 1010.6